This demonstration page uses our WeatherBlox Daily Observations layout. Learn more.

Left ArrowRight Arrow

Hourly Observations for July 13, 2022

Temp ( °F °C ) Dew Point ( °F °C ) Humidity (%) Winds ( mph kmh ) Pressure ( in mb ) Visibility ( mi km ) Precip ( " mm )
12:53 am 00:53 Clear 57 13.9 43 6.1 60 60 ESE 5 7 29.98 1015 10 16 0.00 0.00
1:53 am 01:53 Clear 56 13.3 42 5.6 60 60 ESE 5 7 29.99 1016 10 16 0.00 0.00
2:53 am 02:53 Clear 54 12.2 42 5.6 64 64 ESE 5 7 29.99 1016 10 16 0.00 0.00
3:53 am 03:53 Clear 53 11.7 42 5.6 66 66 ESE 3 6 30.00 1016 10 16 0.00 0.00
5:53 am 05:53 Sunny 54 12.2 42 5.6 64 64 S 3 6 30.04 1017 10 16 0.00 0.00
6:53 am 06:53 Sunny 57 13.9 42 5.6 58 58 ENE 3 6 30.05 1018 10 16 0.00 0.00
7:53 am 07:53 Sunny 58 14.4 44 6.7 60 60 WSW 3 6 30.09 1019 10 16 0.00 0.00
8:53 am 08:53 Sunny 72 22.2 45 7.2 38 38 VRB 3 6 30.09 1019 10 16 0.00 0.00
9:53 am 09:53 Sunny 79 26.1 46 7.8 31 31 NE 7 11 30.06 1018 10 16 0.00 0.00
10:53 am 10:53 Sunny 85 29.4 47 8.3 27 27 SW 9 15 30.04 1017 10 16 0.00 0.00
11:53 am 11:53 Mostly Sunny 86 30 45 7.2 24 24 VRB 7 11 30.05 1018 10 16 0.00 0.00
12:53 pm 12:53 Sunny 89 31.7 44 6.7 21 21 VRB 6 9 30.03 1017 10 16 0.00 0.00
1:53 pm 13:53 Sunny 91 32.8 44 6.7 20 20 W 10 17 29.99 1016 10 16 0.00 0.00
2:53 pm 14:53 Partly Cloudy 93 33.9 46 7.8 20 20 undefined N/A 29.97 1015 10 16 0.00 0.00
3:08 pm 15:08 Partly Cloudy with Nearby Thunderstorms 87 30.6 46 7.8 24 24 S 17 28 29.61 1003 10 16 0.00 0.00
3:44 pm 15:44 Mostly Sunny 81 27.2 48 8.9 32 32 S 23 37 29.68 1005 10 16 0.00 0.00
3:53 pm 15:53 Partly Cloudy 81 27.2 48 8.9 32 32 S 15 24 30.01 1016 10 16 0.00 0.00
4:53 pm 16:53 Sunny 83 28.3 48 8.9 30 30 S 13 20 29.64 1004 10 16 0.00 0.00
5:53 pm 17:53 Sunny 88 31.1 51 10.6 28 28 S 8 13 29.96 1015 10 16 0.00 0.00
6:53 pm 18:53 Sunny 84 28.9 49 9.4 30 30 S 10 17 29.94 1014 10 16 0.00 0.00
7:53 pm 19:53 Mostly Sunny 81 27.2 49 9.4 33 33 S 9 15 29.95 1014 10 16 0.00 0.00
8:53 pm 20:53 Cloudy 77 25 48 8.9 36 36 E 16 26 29.94 1014 10 16 0.00 0.00
9:09 pm 21:09 Mostly Cloudy with Thunderstorms 76 24.4 49 9.4 39 39 ENE 9 15 29.73 1007 10 16 0.00 0.00
9:24 pm 21:24 Partly Cloudy 75 23.9 49 9.4 40 40 E 10 17 29.74 1007 10 16 0.00 0.00
9:48 pm 21:48 Mostly Clear with Nearby Thunderstorms 75 24 48 9 39 39 VRB 5 7 29.77 1008 10 16 0.00 0.00
9:53 pm 21:53 Partly Cloudy with Nearby Thunderstorms 73 22.8 49 9.4 43 43 Calm 29.98 1015 10 16 0.00 0.00
10:03 pm 22:03 Mostly Cloudy with Light Rain 74 23.3 49 9.4 41 41 N 7 11 29.79 1009 10 16 0.00 0.00
10:53 pm 22:53 Mostly Cloudy 77 25 48 8.9 36 36 SE 7 11 29.98 1015 10 16 0.00 0.00
11:53 pm 23:53 Clear 70 21.1 50 10 49 49 SE 6 9 30.00 1016 10 16 0.00 0.00

Powered by AerisWeather